EW5678 Weather Reports


time (UTC)temp
F
wind
direction
speed
knots
gust
knots
rain 1hr
in
rain 24hr
in
rain mn
in
humidity
%
barometer
mb
20210927071608 62 137 11.3 19.1 0.00 0.00 0.00 65 997.5
20210927070708 62 137 7.8 16.5 0.00 0.00 0.00 66 997.6
20210927065809 62 136 7.0 12.2 0.00 0.00 0.00 67 997.6
20210927064908 62 136 7.0 13.0 0.00 0.00 0.00 67 997.5
20210927064008 62 137 6.1 13.0 0.00 0.00 0.00 67 997.5
20210927063108 63 137 7.0 13.0 0.00 0.00 0.00 66 997.6
20210927062209 63 137 7.8 14.8 0.00 0.00 0.00 66 997.7
20210927061309 63 136 8.7 16.5 0.00 0.00 0.00 65 997.6
20210927060409 63 137 8.7 16.5 0.00 0.00 0.00 66 997.7
20210927055509 63 136 8.7 14.8 0.00 0.00 0.00 66 997.6
20210927054608 63 136 9.6 18.2 0.00 0.00 0.00 65 997.5
20210927053708 64 136 9.6 16.5 0.00 0.00 0.00 66 997.5
20210927052808 64 136 9.6 15.6 0.00 0.00 0.00 67 997.5
20210927051908 64 136 10.4 15.6 0.00 0.00 0.00 68 997.5
20210927051009 64 136 10.4 15.6 0.00 0.00 0.00 67 997.4
20210927050108 64 136 11.3 17.4 0.00 0.00 0.00 67 997.4
20210927045208 64 136 11.3 15.6 0.00 0.00 0.00 66 997.2
20210927044309 64 136 10.4 14.8 0.00 0.00 0.00 67 997.3
20210927043408 64 136 10.4 14.8 0.00 0.00 0.00 66 997.3
20210927042508 64 136 10.4 15.6 0.00 0.00 0.00 64 997.3
20210927041610 64 136 9.6 13.9 0.00 0.00 0.00 65 997.3
20210927040709 64 137 9.6 15.6 0.00 0.00 0.00 66 997.3
20210927035808 64 136 9.6 14.8 0.00 0.00 0.00 66 997.3
20210927034909 64 136 10.4 18.2 0.00 0.00 0.00 65 997.2
20210927034009 64 136 10.4 16.5 0.00 0.00 0.00 64 997.2
20210927033108 65 136 10.4 16.5 0.00 0.00 0.00 64 997.2
20210927032209 65 136 9.6 16.5 0.00 0.00 0.00 60 997.2
20210927031309 65 136 10.4 16.5 0.00 0.00 0.00 60 997.1
20210927030409 65 136 9.6 14.8 0.00 0.00 0.00 59 997.2
20210927025510 66 136 7.8 13.9 0.00 0.00 0.00 58 997.1
20210927024609 66 136 7.0 13.0 0.00 0.00 0.00 56 997.1
20210927023710 66 137 7.0 13.0 0.00 0.00 0.00 54 997.2
20210927022808 66 137 7.8 13.0 0.00 0.00 0.00 54 997.2
20210927021909 66 136 7.0 10.4 0.00 0.00 0.00 55 997.2
20210927021010 66 136 5.2 10.4 0.00 0.00 0.00 54 997.1
20210927020110 67 136 4.3 8.7 0.00 0.00 0.00 55 997.0
20210927015209 67 136 3.5 7.8 0.00 0.00 0.00 56 997.0
20210927014309 67 136 3.5 7.0 0.00 0.00 0.00 56 997.0
20210927013411 66 136 5.2 9.6 0.00 0.00 0.00 57 997.0
20210927012509 66 136 5.2 11.3 0.00 0.00 0.00 57 996.9
20210927011609 67 136 5.2 8.7 0.00 0.00 0.00 56 996.9
20210927010709 66 137 7.8 12.2 0.00 0.00 0.00 57 996.9
20210927005810 67 137 11.3 13.9 0.00 0.00 0.00 57 996.9
20210927004909 67 137 9.6 13.9 0.00 0.00 0.00 58 996.8
20210927004009 67 137 12.2 18.2 0.00 0.00 0.00 58 996.8
20210927003110 67 136 13.0 20.9 0.00 0.00 0.00 56 996.7
20210927002209 67 136 15.6 20.9 0.00 0.00 0.00 55 996.4
20210927001310 67 136 14.8 20.0 0.00 0.00 0.00 55 996.3
20210927000409 67 136 13.0 19.1 0.00 0.00 0.00 56 996.2
20210926235509 67 136 15.6 22.6 0.00 0.00 0.00 55 996.1
20210926234609 68 136 17.4 21.7 0.00 0.00 0.00 54 996.0
20210926233709 68 136 16.5 21.7 0.00 0.00 0.00 53 995.8
20210926232810 68 136 15.6 21.7 0.00 0.00 0.00 55 995.7
20210926231910 67 136 13.0 19.1 0.00 0.00 0.00 55 995.6
20210926231009 68 136 15.6 20.9 0.00 0.00 0.00 54 995.6
20210926230110 68 136 13.9 20.0 0.00 0.00 0.00 54 995.5
20210926225209 68 136 15.6 19.1 0.00 0.00 0.00 53 995.4
20210926224309 68 136 15.6 23.5 0.00 0.00 0.00 53 995.3
20210926223410 68 136 16.5 21.7 0.00 0.00 0.00 53 995.2
20210926222510 68 136 15.6 19.1 0.00 0.00 0.00 53 995.2
20210926221610 68 136 17.4 25.2 0.00 0.00 0.00 51 995.1
20210926220710 68 136 17.4 24.3 0.00 0.00 0.00 52 995.0
20210926215809 68 136 19.1 26.1 0.00 0.00 0.00 52 994.9
20210926214910 68 137 20.9 28.7 0.00 0.00 0.00 51 994.9
20210926214009 68 137 20.0 28.7 0.00 0.00 0.00 53 994.9
20210926213109 68 138 23.5 29.5 0.00 0.00 0.00 52 994.7
20210926212209 68 138 24.3 32.2 0.00 0.00 0.00 51 994.5
20210926211310 68 137 23.5 31.3 0.00 0.00 0.00 53 994.4
20210926210409 68 137 23.5 32.2 0.00 0.00 0.00 53 994.3
20210926205510 68 137 21.7 30.4 0.00 0.00 0.00 52 994.1
20210926204609 68 137 20.0 29.5 0.00 0.00 0.00 54 994.3
20210926203709 68 137 18.2 28.7 0.00 0.00 0.00 53 994.2
20210926202809 68 137 18.2 26.1 0.00 0.00 0.00 53 994.1
20210926201910 68 137 19.1 25.2 0.00 0.00 0.00 53 994.1
20210926201009 68 137 18.2 26.9 0.00 0.00 0.00 54 994.0
20210926200110 68 137 15.6 25.2 0.00 0.00 0.00 55 994.1
20210926195209 67 137 20.9 29.5 0.00 0.00 0.00 56 994.0
20210926194309 67 137 19.1 27.8 0.00 0.00 0.00 56 993.9
20210926193410 67 137 19.1 29.5 0.00 0.00 0.00 56 993.9
20210926192510 67 137 20.0 29.5 0.00 0.00 0.00 56 994.1
20210926191609 67 137 19.1 32.2 0.00 0.00 0.00 56 994.0
20210926190710 67 137 21.7 27.8 0.00 0.00 0.00 54 994.0
20210926185810 67 137 18.2 32.2 0.00 0.00 0.00 56 994.0
20210926184909 67 137 14.8 26.1 0.00 0.00 0.00 58 994.1
20210926184009 67 137 14.8 20.0 0.00 0.00 0.00 57 994.1
20210926183110 66 137 16.5 22.6 0.00 0.00 0.00 62 994.1
20210926182210 66 137 19.1 24.3 0.00 0.00 0.00 62 994.1
20210926181309 66 137 14.8 23.5 0.00 0.00 0.00 60 994.0
20210926180409 66 137 14.8 20.9 0.00 0.00 0.00 65 994.0
20210926175510 65 137 17.4 21.7 0.00 0.00 0.00 66 994.1
20210926174609 65 137 17.4 25.2 0.00 0.00 0.00 65 994.1
20210926173709 66 137 13.0 20.9 0.00 0.00 0.00 69 994.2
20210926172809 65 137 15.6 23.5 0.00 0.00 0.00 69 994.4
20210926171910 65 137 19.1 26.1 0.00 0.00 0.00 68 994.3
20210926171010 65 137 16.5 23.5 0.00 0.00 0.00 69 994.5
20210926170109 65 137 16.5 21.7 0.00 0.00 0.00 69 994.4
20210926165210 64 137 16.5 22.6 0.00 0.00 0.00 69 994.5
20210926164309 64 137 17.4 23.5 0.00 0.00 0.00 71 994.5
20210926163410 64 137 17.4 25.2 0.00 0.00 0.00 71 994.6
20210926162509 64 137 16.5 24.3 0.00 0.00 0.00 74 994.6
20210926161610 64 137 15.6 24.3 0.00 0.00 0.00 74 994.8
20210926160710 64 137 17.4 24.3 0.00 0.00 0.00 74 994.6
20210926155809 64 137 15.6 24.3 0.00 0.00 0.00 75 994.8
20210926154909 63 138 16.5 24.3 0.00 0.00 0.00 78 994.8
20210926154009 63 138 15.6 22.6 0.00 0.00 0.00 79 994.8
20210926153109 63 137 18.2 24.3 0.00 0.00 0.00 78 994.8
20210926152211 63 137 17.4 24.3 0.00 0.00 0.00 79 995.0
20210926151310 63 137 14.8 24.3 0.00 0.00 0.00 78 995.0
20210926150410 63 137 13.9 20.0 0.00 0.00 0.00 75 994.9
20210926145509 63 137 12.2 19.1 0.00 0.00 0.00 78 994.9
20210926144609 63 137 13.0 19.1 0.00 0.00 0.00 78 994.8
20210926143710 63 137 17.4 21.7 0.00 0.00 0.00 78 994.8
20210926142809 63 137 18.2 22.6 0.00 0.00 0.00 77 994.8
20210926141910 63 137 18.2 22.6 0.00 0.00 0.00 77 994.9
20210926141009 63 137 15.6 22.6 0.00 0.00 0.00 77 994.9
20210926140109 62 137 17.4 20.9 0.00 0.00 0.00 78 995.0
20210926135210 62 137 17.4 21.7 0.00 0.00 0.00 78 994.9
20210926134309 63 137 15.6 20.0 0.00 0.00 0.00 77 994.9
20210926133410 63 137 14.8 20.0 0.00 0.00 0.00 77 994.8
20210926132510 62 137 14.8 19.1 0.00 0.00 0.00 80 994.8
20210926131610 62 137 13.9 19.1 0.00 0.00 0.00 80 994.8
20210926130709 62 137 12.2 20.0 0.00 0.00 0.00 80 994.6
20210926125811 62 137 15.6 20.9 0.00 0.00 0.00 81 994.5
20210926124909 62 137 17.4 25.2 0.00 0.00 0.00 81 994.4
20210926124011 62 137 12.2 19.1 0.00 0.00 0.00 82 994.4
20210926123110 62 137 12.2 21.7 0.00 0.00 0.00 82 994.3
20210926122210 62 137 12.2 17.4 0.00 0.00 0.00 82 994.1
20210926121311 62 137 13.9 22.6 0.00 0.00 0.00 82 994.2
20210926120410 61 137 12.2 20.0 0.00 0.00 0.00 82 994.2
20210926115510 61 137 13.9 20.0 0.00 0.00 0.00 83 994.2
20210926114611 61 137 16.5 22.6 0.00 0.00 0.00 83 994.1
20210926113710 61 137 15.6 25.2 0.00 0.00 0.00 83 994.2
20210926112810 62 137 17.4 25.2 0.00 0.00 0.00 82 993.9
20210926111910 62 137 15.6 21.7 0.00 0.00 0.00 83 994.0
20210926111010 62 137 13.0 18.2 0.00 0.00 0.00 82 993.9
20210926110110 62 137 13.9 18.2 0.00 0.00 0.00 83 993.8
20210926105210 62 137 13.9 19.1 0.00 0.00 0.00 82 993.6
20210926104309 62 137 14.8 19.1 0.00 0.00 0.00 82 993.5
20210926103410 63 137 15.6 21.7 0.00 0.00 0.00 82 993.5
20210926102510 63 137 17.4 24.3 0.00 0.00 0.00 81 993.3
20210926101611 63 137 17.4 20.9 0.00 0.00 0.00 81 993.1
20210926100710 63 138 16.5 20.9 0.00 0.00 0.00 80 993.1
20210926095810 64 138 16.5 20.9 0.00 0.00 0.00 78 993.0
20210926094910 64 137 17.4 21.7 0.00 0.00 0.00 78 993.1
20210926094011 64 138 18.2 25.2 0.00 0.00 0.00 76 993.0
20210926093110 64 138 16.5 22.6 0.00 0.00 0.00 78 992.9
20210926092211 65 138 17.4 23.5 0.00 0.00 0.00 78 992.9
20210926091310 65 138 13.0 17.4 0.00 0.00 0.00 77 992.9
20210926090410 65 138 11.3 15.6 0.00 0.00 0.00 78 992.8
20210926085510 65 137 11.3 16.5 0.00 0.00 0.00 77 992.8
20210926084610 65 138 12.2 15.6 0.00 0.00 0.00 79 992.9
20210926083711 64 138 12.2 14.8 0.00 0.00 0.00 85 992.8
20210926082810 65 138 13.9 17.4 0.00 0.00 0.00 83 992.7
20210926081911 64 138 14.8 18.2 0.00 0.00 0.00 84 992.7
20210926081010 64 138 14.8 17.4 0.00 0.00 0.00 86 992.8
20210926080111 64 138 14.8 16.5 0.00 0.00 0.00 87 992.8
20210926075210 64 138 13.9 15.6 0.00 0.00 0.00 87 992.8
20210926074311 64 138 12.2 13.9 0.00 0.00 0.00 87 992.9
20210926073410 64 138 13.9 14.8 0.00 0.00 0.00 87 993.0
20210926072511 64 138 13.9 15.6 0.00 0.00 0.00 87 993.0